Hourly Weather Roundup
Issued by NWS Central Illinois

Home | Current Version | Previous Version | Text Only | Print | Product List | Glossary On
Versions: 1 2 3 4 5 6 7 8 9 10 11 12 13 14 15 16 17 18 19 20 21 22 23 24 25 26 27 28 29 30 31 32 33 34 35 36 37 38 39 40 41 42 43 44 45 46 47 48 49 50
000
NZUS43 KILX 260610
HWRILX

AREA WEATHER ROUNDUP
NATIONAL WEATHER SERVICE, LINCOLN IL
1200 AM CST SUN FEB 26 2017


CITY           SKY/WX    TMP DP  RH WIND       PRES   REMARKS
BLOOMINGTON    CLOUDY    23  17  78 W7        30.09S WCI  15
6HR MIN TEMP:  23; 6HR MAX TEMP:  27;

CHAMPAIGN      CLEAR     19  13  77 W7        30.10S WCI  10
6HR MIN TEMP:  19; 6HR MAX TEMP:  30;

DECATUR        CLEAR     25  14  63 W3        30.11S
6HR MIN TEMP:  25; 6HR MAX TEMP:  31;

EFFINGHAM      CLEAR     26  17  70 CALM      30.15F
6HR MIN TEMP:  25; 6HR MAX TEMP:  31;

FLORA          CLEAR     24  17  74 W3        30.15F
6HR MIN TEMP:  24; 6HR MAX TEMP:  36;

GALESBURG      CLOUDY    24  20  83 CALM      30.07F
6HR MIN TEMP:  22; 6HR MAX TEMP:  28;

JACKSONVILLE   CLEAR     22  13  70 S5        30.11S WCI  15
6HR MIN TEMP:  22; 6HR MAX TEMP:  32;

LACON          CLOUDY    26  19  72 CALM      30.08S
6HR MIN TEMP:  23; 6HR MAX TEMP:  29;

LAWRENCEVILLE  CLEAR     27  18  69 NW8       30.15R WCI  19
6HR MIN TEMP:  27; 6HR MAX TEMP:  34;

LITCHFIELD     CLEAR     22  17  81 CALM      30.12S
6HR MIN TEMP:  22; 6HR MAX TEMP:  32;

$$


CITY           SKY/WX    TMP DP  RH WIND       PRES   REMARKS
LINCOLN        PTCLDY    24  17  72 CALM      30.12R
6HR MIN TEMP:  24; 6HR MAX TEMP:  32;

MACOMB         PTCLDY    22  17  82 S5        30.10S WCI  16
6HR MIN TEMP:  22; 6HR MAX TEMP:  31;

MATTOON        CLEAR     25  14  63 W5        30.11R WCI  19
6HR MIN TEMP:  22; 6HR MAX TEMP:  31;

MT CARMEL AP   CLEAR     25  19  75 W6        30.15R WCI  18
6HR MIN TEMP:  25; 6HR MAX TEMP:  33;

OLNEY-NOBLE AP CLEAR     27  19  74 CALM      30.15S
PARIS          CLEAR     21  16  82 W3        30.12R
6HR MIN TEMP:  20; 6HR MAX TEMP:  31;

PEORIA         CLOUDY    25  17  72 SW5       30.10R WCI  19
6HR MIN TEMP:  25; 6HR MAX TEMP:  30;

PONTIAC        CLEAR     24  20  85 W8        30.09S WCI  15
6HR MIN TEMP:  24; 6HR MAX TEMP:  29;

RANTOUL        CLEAR     26  20  80 W6        30.09R WCI  19
6HR MIN TEMP:  25; 6HR MAX TEMP:  30;

SPRINGFIELD    CLEAR     24  14  65 CALM      30.12S
6HR MIN TEMP:  21; 6HR MAX TEMP:  33;

TAYLORVILLE    CLEAR     23  13  66 CALM      30.13S
6HR MIN TEMP:  22; 6HR MAX TEMP:  32;

$$

...REGIONAL REPORTS...


CITY           SKY/WX    TMP DP  RH WIND       PRES   REMARKS
CHICAGO O`HARE CLOUDY    26  15  63 W9        30.04R WCI  17
KANKAKEE       PTCLDY    25  19  79 CALM      30.09R
MOLINE         CLOUDY    28  18  66 S7        30.05F WCI  21
MOUNT STERLING CLOUDY    23  18  80 S3        30.08F
MOUNT VERNON   CLEAR     19  16  88 CALM      30.16S
PITTSFIELD     CLEAR     23  17  78 S5        30.11S WCI  17
QUINCY         MOCLDY    28  14  55 S7        30.07F WCI  21
ROCKFORD       PTCLDY    23  16  74 S5        30.05F WCI  17
$$


CITY           SKY/WX    TMP DP  RH WIND       PRES   REMARKS
BURLINGTON     CLOUDY    26  19  74 S6        30.05F WCI  19
CEDAR RAPIDS   PTCLDY    24  18  77 S8        29.98F WCI  15
DES MOINES     PTCLDY    30  19  63 S9        29.92F WCI  22
KIRKSVILLE     PTCLDY    23  14  68 S8        30.03F WCI  14
OTTUMWA        CLOUDY    30  18  60 S9        29.99F WCI  22
ST LOUIS       CLEAR     31  16  54 CALM      30.13S
$$


CITY           SKY/WX    TMP DP  RH WIND       PRES   REMARKS
TERRE HAUTE    CLEAR     26  14  60 W5        30.13R WCI  20
EVANSVILLE     CLEAR     31  15  52 W3        30.16R
INDIANAPOLIS   PTCLDY    25  16  68 W9        30.08R WCI  15
LAFAYETTE      CLEAR     22  18  85 W5        30.09R WCI  16
MADISON        MOCLDY    20  14  77 CALM      29.98F
MILWAUKEE      PTCLDY    24  12  60 W8        30.00S WCI  15
$$






USA.gov is the U.S. government's official web portal to all federal, state and local government web resources and services.